Home   Weather   Metairie   Past weeks

Flag for USA Past Weather in Metairie, Louisiana, USA — Yesterday and Last 2 Weeks

Now
72 °F

Low clouds.


Feels Like: 68 °F
Forecast: 71 / 81 °F
Wind: 16 mph from Southeast

Location: New Orleans International Airport

Current Time: Feb 28, 2017 at 1:59:00 am

Latest Report: Feb 28, 2017 at 12:53 am


Visibility: 10 mi

Pressure: 30.12 "Hg

Humidity: 93%

Dew Point: 70 °F

Location of MetairieLocation

Past Weather in Metairie — Graph

°F

Metairie Temperature Yesterday

Maximum temperature yesterday: 78 °F (at 1:17 pm)
Minimum temperature yesterday: 66 °F (at 12:53 am)
Average temperature yesterday: 72 °F

High & Low Weather Summary for the Past Weeks

 TemperatureHumidityPressure
High78 °F (Feb 19, 1:53 pm)100% (Feb 17, 8:53 pm)30.22 "Hg (Feb 17, 8:53 pm)
Low46 °F (Feb 17, 2:53 am)24% (Feb 25, 3:53 pm)29.73 "Hg (Feb 14, 10:13 pm)
Average64 °F79%29.98 "Hg
* Reported Feb 13 12:53 am — Feb 28 12:53 am, Metairie, Weather by CustomWeather, © 2017

Note: Actual official high and low records may vary slightly from our data, if they occured in-between our weather recording intervals... More about our weather records

Advertising

Metairie Weather History for the Previous 24 Hours

Scroll right to see more
 ConditionsComfort  
Time TempWeatherWind HumidityBarometerVisibility
12:53 am
Tue, Feb 28
72 °FLow clouds.16 mph93%30.12 "Hg10 mi
11:53 pm
Mon, Feb 27
71 °FLow clouds.15 mph93%30.12 "Hg10 mi
10:53 pm71 °FPassing clouds.10 mph93%30.14 "Hg10 mi
9:53 pm71 °FMostly cloudy.14 mph93%30.13 "Hg10 mi
9:37 pm71 °FPartly cloudy.13 mph93%30.13 "Hg10 mi
8:53 pm71 °FPassing clouds.12 mph93%30.14 "Hg10 mi
7:53 pm73 °FMostly cloudy.13 mph88%30.13 "Hg10 mi
6:53 pm73 °FOvercast.10 mph88%30.11 "Hg10 mi
5:53 pm74 °FMostly cloudy.9 mph82%30.09 "Hg10 mi
4:53 pm75 °FBroken clouds.12 mph76%30.09 "Hg10 mi
3:53 pm77 °FBroken clouds.13 mph71%30.08 "Hg10 mi
2:53 pm77 °FBroken clouds.16 mph71%30.07 "Hg10 mi
1:53 pm77 °FPartly sunny.13 mph71%30.09 "Hg10 mi
1:17 pm78 °FPartly sunny.17 mph69%30.09 "Hg10 mi
12:53 pm77 °FPartly sunny.15 mph71%30.10 "Hg10 mi
12:25 pm76 °FPartly sunny.15 mph74%30.10 "Hg10 mi
11:17 am77 °FBroken clouds.16 mph74%30.13 "Hg10 mi
10:53 am75 °FPartly sunny.14 mph79%30.14 "Hg10 mi
9:53 am73 °FPartly sunny.15 mph84%30.12 "Hg10 mi
9:23 am72 °FPartly sunny.15 mph84%30.11 "Hg10 mi
8:53 am72 °FPartly sunny.12 mph84%30.11 "Hg10 mi
8:34 am71 °FPartly sunny.15 mph87%30.09 "Hg10 mi
7:53 am70 °FPartly sunny.12 mph87%30.08 "Hg10 mi
7:11 am69 °FMostly cloudy.10 mph90%30.07 "Hg10 mi
7:04 am69 °FMostly cloudy.10 mph90%30.06 "Hg10 mi
5:53 am67 °FMostly cloudy.13 mph93%30.05 "Hg10 mi
4:53 am67 °FLight rain. Mostly cloudy.8 mph87%30.05 "Hg10 mi
3:53 am66 °FPassing clouds.9 mph87%30.04 "Hg10 mi
2:53 am67 °FMostly cloudy.9 mph81%30.05 "Hg10 mi
1:53 am67 °FOvercast.15 mph79%30.06 "Hg10 mi
Weather by CustomWeather, © 2017

See weather overviewHow to use our weather pages